Location: Angwan Shehu
(11.2514°N, 7.4613°E)
Time: 05:15:30
(UTC+00:00)

SR - Pass Details

Date: 14 April 2021
Orbit: 573 x 882 km, 66.7° (Epoch: 12 May)

Event Time Altitude Azimuth Distance (km) Brightness Sun altitude
Rises 07:58:56 0° 228° (SW) 3,100 ? 38.0°
Reaches altitude 10° 08:01:37 10° 243° (WSW) 2,237 ? 38.7°
Maximum altitude 08:05:39 23° 295° (WNW) 1,590 ? 39.7°
Drops below altitude 10° 08:09:58 10° 347° (NNW) 2,394 ? 40.7°
Sets 08:12:59 0° 1° (N) 3,373 ? 41.5°
